St. Francis, KS

11:57 PM CDT on September 24, 2017 (GMT -0500)
Cheyenne County Municipal

Weather History for KSYF - September, 2013

Change the Weather History Date:

Saturday, September 7, 2013

  Actual Average Record
Temperature  
Mean Temperature 81 °F -  
Max Temperature 102 °F 86 °F 102 °F (2013)
Min Temperature 61 °F 56 °F 46 °F (2017)
Cooling Degree Days 16    
Growing Degree Days 31 (Base 50)    
Moisture  
Dew Point 37 °F    
Average Humidity 25    
Maximum Humidity 51    
Minimum Humidity 6    
Precipitation  
Precipitation 0.00 in - - ()
Sea Level Pressure  
Sea Level Pressure 30.01 in    
Wind  
Wind Speed 11 mph (SSW)    
Max Wind Speed 17 mph    
Max Gust Speed 23 mph    
Visibility 10 miles    
Events      
Averages and records for this station are not official NWS values.
T = Trace of Precipitation, MM = Missing Value Source: NWS Daily Summary

Daily Weather History Graph

Daily Weather History Graph

Search for Another Location

Airport or City:

Trip Planner

Search our weather history database for the weather conditions in past years. The results will help you decide how hot, cold, wet, or windy it might be!

Date:

Astronomy

Sep. 07, 2013 Rise Set
Actual Time 7:21 AM CDT 8:08 PM CDT
Civil Twilight 6:53 AM CDT 8:35 PM CDT
Nautical Twilight 6:21 AM CDT 9:08 PM CDT
Astronomical Twilight 5:47 AM CDT 9:41 PM CDT
Moon 9:37 AM CDT (9/7) 9:08 PM CDT (9/7)
Length of Visible Light 13h 41m
Length of Day
12h 47m
Waxing Crescent, 5% of the Moon is Illuminated
Sep 7
Waxing Crescent
Sep 12
First Quarter
Sep 19
Full
Sep 26
Last Quarter
Oct 4
New

Hourly Weather History & Observations

Time (CDT) Temp. Dew Point Humidity Pressure Visibility Wind Dir Wind Speed Gust Speed Precip Events Conditions
12:15 AM 77.0 °F 37.9 °F 24% 30.02 in 10.0 mi South 17.3 mph - N/A   Clear
12:35 AM 76.1 °F 38.3 °F 26% 30.02 in 10.0 mi South 16.1 mph - N/A   Clear
12:55 AM 75.2 °F 38.8 °F 27% 30.03 in 10.0 mi SSW 12.7 mph - N/A   Clear
1:15 AM 74.5 °F 39.4 °F 28% 30.03 in 10.0 mi SW 10.4 mph - N/A   Clear
1:35 AM 72.7 °F 40.3 °F 31% 30.03 in 10.0 mi SW 9.2 mph - N/A   Clear
1:55 AM 73.4 °F 40.1 °F 30% 30.03 in 10.0 mi SW 12.7 mph - N/A   Clear
2:15 AM 74.3 °F 40.1 °F 29% 30.03 in 10.0 mi SW 9.2 mph - N/A   Clear
2:35 AM 71.1 °F 41.2 °F 34% 30.03 in 10.0 mi SW 10.4 mph - N/A   Clear
2:55 AM 70.5 °F 41.5 °F 35% 30.02 in 10.0 mi SW 10.4 mph - N/A   Clear
3:15 AM 70.7 °F 41.4 °F 35% 30.02 in 10.0 mi SW 9.2 mph - N/A   Clear
3:35 AM 69.1 °F 41.9 °F 37% 30.02 in 10.0 mi SW 8.1 mph - N/A   Clear
3:55 AM 67.5 °F 42.6 °F 41% 30.03 in 10.0 mi WSW 8.1 mph - N/A   Clear
4:15 AM 65.5 °F 42.8 °F 44% 30.03 in 10.0 mi WSW 8.1 mph - N/A   Clear
4:35 AM 64.2 °F 43.0 °F 46% 30.03 in 10.0 mi SW 9.2 mph - N/A   Clear
4:55 AM 65.1 °F 42.8 °F 44% 30.02 in 10.0 mi SSW 10.4 mph - N/A   Clear
5:15 AM 66.4 °F 41.2 °F 40% 30.01 in 10.0 mi SW 10.4 mph - N/A   Clear
5:35 AM 65.7 °F 41.0 °F 41% 30.02 in 10.0 mi WSW 6.9 mph - N/A   Clear
5:55 AM 61.3 °F 42.8 °F 51% 30.03 in 10.0 mi WNW 10.4 mph - N/A   Clear
6:15 AM 62.1 °F 42.3 °F 48% 30.02 in 10.0 mi SW 10.4 mph - N/A   Clear
6:35 AM 63.7 °F 41.4 °F 44% 30.02 in 10.0 mi SW 10.4 mph - N/A   Clear
6:55 AM 63.5 °F 41.0 °F 44% 30.03 in 10.0 mi SW 6.9 mph - N/A   Clear
7:15 AM 63.3 °F 41.0 °F 44% 30.03 in 10.0 mi SW 8.1 mph - N/A   Clear
7:35 AM 62.8 °F 41.4 °F 45% 30.03 in 10.0 mi WSW 10.4 mph - N/A   Clear
7:55 AM 63.7 °F 42.1 °F 45% 30.03 in 10.0 mi WSW 11.5 mph - N/A   Clear
8:15 AM 64.4 °F 42.8 °F 45% 30.04 in 10.0 mi WSW 8.1 mph - N/A   Clear
8:35 AM 64.8 °F 43.5 °F 46% 30.04 in 10.0 mi SW 10.4 mph - N/A   Clear
8:55 AM 66.9 °F 44.8 °F 45% 30.04 in 10.0 mi WSW 8.1 mph - N/A   Clear
9:15 AM 69.1 °F 45.7 °F 43% 30.05 in 10.0 mi WSW 8.1 mph - N/A   Clear
9:35 AM 71.1 °F 46.8 °F 42% 30.05 in 10.0 mi SW 3.5 mph - N/A   Clear
9:55 AM 75.6 °F 47.5 °F 37% 30.05 in 10.0 mi WSW 4.6 mph - N/A   Clear
10:15 AM 79.2 °F 48.0 °F 33% 30.07 in 10.0 mi Calm Calm - N/A   Clear
10:35 AM 81.7 °F 47.7 °F 30% 30.06 in 10.0 mi WNW 3.5 mph - N/A   Clear
10:55 AM 85.5 °F 47.5 °F 27% 30.07 in 10.0 mi West 3.5 mph - N/A   Clear
11:15 AM 89.2 °F 45.7 °F 22% 30.07 in 10.0 mi North 4.6 mph - N/A   Clear
11:35 AM 90.1 °F 44.2 °F 20% 30.06 in 10.0 mi Calm Calm - N/A   Clear
11:55 AM 92.7 °F 40.6 °F 16% 30.06 in 10.0 mi Calm Calm - N/A   Clear
12:15 PM 94.8 °F 33.3 °F 11% 30.05 in 10.0 mi South 6.9 mph - N/A   Clear
12:35 PM 96.6 °F 31.3 °F 10% 30.05 in 10.0 mi South 10.4 mph 17.3 mph N/A   Clear
12:55 PM 97.3 °F 31.3 °F 10% 30.04 in 10.0 mi SSW 8.1 mph 17.3 mph N/A   Clear
1:15 PM 98.6 °F 29.3 °F 9% 30.03 in 10.0 mi SSW 6.9 mph 17.3 mph N/A   Clear
1:35 PM 99.1 °F 28.8 °F 8% 30.03 in 10.0 mi SW 10.4 mph 17.3 mph N/A   Clear
1:55 PM 100.2 °F 26.6 °F 7% 30.02 in 10.0 mi South 16.1 mph - N/A   Clear
2:15 PM 101.1 °F 25.9 °F 7% 30.02 in 10.0 mi SSW 16.1 mph 23.0 mph N/A   Clear
2:35 PM 101.3 °F 26.6 °F 7% 30.01 in 10.0 mi SSE 12.7 mph 20.7 mph N/A   Clear
2:55 PM 100.2 °F 26.8 °F 7% 30.00 in 10.0 mi South 9.2 mph - N/A   Clear
3:15 PM 101.3 °F 25.3 °F 7% 29.99 in 10.0 mi South 8.1 mph 17.3 mph N/A   Clear
3:35 PM 101.1 °F 25.0 °F 7% 29.99 in 10.0 mi South 5.8 mph 23.0 mph N/A   Clear
3:55 PM 101.3 °F 26.6 °F 7% 29.98 in 10.0 mi SE 6.9 mph 11.5 mph N/A   Clear
4:15 PM 101.8 °F 24.4 °F 6% 29.98 in 10.0 mi South 8.1 mph 11.5 mph N/A   Clear
4:35 PM 100.9 °F 26.6 °F 7% 29.97 in 10.0 mi South 4.6 mph 16.1 mph N/A   Clear
4:55 PM 100.6 °F 27.1 °F 7% 29.97 in 10.0 mi SSW 10.4 mph 20.7 mph N/A   Clear
5:15 PM 101.1 °F 26.8 °F 7% 29.97 in 10.0 mi South 11.5 mph 23.0 mph N/A   Clear
5:35 PM 100.8 °F 26.4 °F 7% 29.97 in 10.0 mi South 11.5 mph 18.4 mph N/A   Clear
5:55 PM 100.0 °F 26.6 °F 7% 29.96 in 10.0 mi South 11.5 mph - N/A   Clear
6:15 PM 99.3 °F 27.5 °F 8% 29.96 in 10.0 mi SE 9.2 mph - N/A   Clear
6:35 PM 98.6 °F 27.5 °F 8% 29.96 in 10.0 mi South 13.8 mph - N/A   Clear
6:55 PM 97.3 °F 28.2 °F 9% 29.96 in 10.0 mi SSE 11.5 mph - N/A   Clear
7:15 PM 96.1 °F 28.9 °F 9% 29.96 in 10.0 mi SSE 10.4 mph - N/A   Clear
7:35 PM 93.2 °F 31.3 °F 11% 29.96 in 10.0 mi SSE 9.2 mph - N/A   Clear
7:55 PM 88.7 °F 34.5 °F 15% 29.97 in 10.0 mi SSE 10.4 mph - N/A   Clear
8:15 PM 86.2 °F 35.6 °F 16% 29.97 in 10.0 mi SSE 10.4 mph - N/A   Clear
8:35 PM 85.1 °F 36.1 °F 17% 29.97 in 10.0 mi SSE 11.5 mph - N/A   Clear
8:55 PM 83.5 °F 37.8 °F 20% 29.98 in 10.0 mi SSE 12.7 mph - N/A   Clear
9:15 PM 84.0 °F 37.6 °F 19% 29.98 in 10.0 mi South 10.4 mph - N/A   Clear
9:35 PM 83.7 °F 38.3 °F 20% 29.98 in 10.0 mi South 12.7 mph - N/A   Clear
9:55 PM 81.3 °F 39.4 °F 22% 29.99 in 10.0 mi South 11.5 mph - N/A   Clear
10:15 PM 81.5 °F 39.6 °F 22% 29.99 in 10.0 mi South 12.7 mph - N/A   Clear
10:35 PM 81.5 °F 39.6 °F 22% 29.99 in 10.0 mi South 12.7 mph - N/A   Clear
10:55 PM 79.9 °F 40.6 °F 25% 29.99 in 10.0 mi South 13.8 mph - N/A   Clear
11:15 PM 79.7 °F 40.5 °F 25% 29.99 in 10.0 mi South 15.0 mph - N/A   Clear
11:35 PM 79.7 °F 41.2 °F 25% 29.99 in 10.0 mi South 13.8 mph - N/A   Clear
11:55 PM 79.0 °F 41.5 °F 26% 29.99 in 10.0 mi South 16.1 mph - N/A   Clear